Content
SEND FEEDBACK

Daily
Averages
Monthly
Summary
United States of America

MANGILAO, GUAM


Home > North America > United States > Guam
Elevation: 60 feet     Latitude: 13 27N     Longitude: 144 49E

WEATHER
 
SELECT A DAY
Number of Records: 337,246;   Date Range: 1/1/95 - 4/14/14
 
SHARE

PRINT THIS DATA

[ ← Previous Day ]
WEATHER ALMANAC - JULY 24, 2013
[ Next Day → ]
[ °C ]   °F
Weather ElementAverageHighLow
Temperature81.2 °F86 °F (1:34 pm)77 °F (1:36 am)
Dewpoint77.1 °F82.4 °F (1:34 pm)71.4 °F (3:55 am)
Humidity87.6 %100 % (2:13 am)78 % (3:55 am)
Barometer29.84 in29.86 in (1:07 am)29.79 in (2:55 pm)
Wind Speed7.9 mph16.1 mph (7:21 pm)
Wind Gust20.7 mph (7:21 pm)
Weather ElementAverage
Visibility8.8 mi
Wind DirectionENE (65.4 °)

Weather ElementTotal
Precipitation0.37 in
Cooling Degree Days16.5 (Base 65)
Growing Degree Days31.5 (Base 50)
Averaged from 82 records on July 24, 2013
WEATHER CONDITIONS BREAKOUT
WIND DIRECTION BREAKOUT
WEATHER BY HOUR - JULY 24, 2013
[ °C ]   °F
Local TimeTemperatureDewpointHumidityBarometerVisibilityWind DirectionWind SpeedGust SpeedPrecipitationEventsConditions
1:07 AM80.6 °F78.8 °F94 %29.86 in10.0 miENE (60°)4.6 mphLight Drizzle
1:17 AM78.8 °F77.0 °F94 %29.86 in10.0 miEast (90°)15.0 mphPartly Cloudy
1:22 AM78.8 °F77.0 °F94 %29.86 in9.0 miEast (80°)11.5 mphRainLight Rain
1:36 AM77.0 °F75.2 °F94 %29.85 in10.0 miENE (70°)8.1 mphPartly Cloudy
1:55 AM78.6 °F77.2 °F95 %29.84 in10.0 miENE (70°)8.1 mph0.00 inPartly Cloudy
1:57 AM78.8 °F77.0 °F94 %29.84 in10.0 miENE (70°)8.1 mphRainLight Rain
2:13 AM77.0 °F77.0 °F100 %29.84 in10.0 miENE (70°)5.8 mphPartly Cloudy
2:55 AM78.4 °F73.0 °F83 %29.83 in10.0 miENE (70°)4.6 mph0.01 inClear
3:55 AM79.0 °F71.4 °F78 %29.82 in10.0 miEast (100°)4.6 mphPartly Cloudy
4:55 AM79.0 °F73.6 °F83 %29.82 in10.0 miEast (100°)6.9 mphClear
5:55 AM78.6 °F74.8 °F88 %29.82 in10.0 miEast (90°)5.8 mphClear
6:55 AM80.4 °F76.3 °F87 %29.83 in10.0 miNE (50°)4.6 mphClear
7:55 AM82.6 °F78.1 °F86 %29.84 in10.0 miENE (70°)5.8 mphClear
8:10 AM82.4 °F78.8 °F89 %29.84 in10.0 miNE (40°)4.6 mphMostly Cloudy
8:34 AM82.4 °F78.8 °F89 %29.85 in10.0 miENE (60°)6.9 mphOvercast
8:35 AM82.4 °F78.8 °F89 %29.85 in10.0 miENE (60°)6.9 mphOvercast
8:38 AM82.4 °F78.8 °F89 %29.85 in10.0 miENE (60°)6.9 mphOvercast
8:45 AM82.4 °F78.8 °F89 %29.84 in8.0 miENE (70°)6.9 mphRainLight Rain
8:46 AM82.4 °F78.8 °F89 %29.84 in7.0 miENE (70°)6.9 mphRainLight Rain
8:48 AM82.4 °F78.8 °F89 %29.84 in7.0 miEast (90°)4.6 mphRainLight Rain
8:55 AM82.9 °F79.0 °F88 %29.84 in9.0 miEast (80°)9.2 mph0.01 inRainLight Rain
8:59 AM84.2 °F78.8 °F84 %29.84 in10.0 miENE (60°)10.4 mphMostly Cloudy
9:01 AM84.2 °F78.8 °F84 %29.84 in10.0 miENE (60°)10.4 mphMostly Cloudy
9:14 AM84.2 °F78.8 °F84 %29.85 in10.0 miENE (60°)9.2 mphScattered Clouds
9:55 AM85.5 °F79.9 °F83 %29.85 in10.0 miEast (90°)9.2 mph0.00 inPartly Cloudy
10:08 AM84.2 °F80.6 °F89 %29.85 in10.0 miEast (80°)8.1 mphMostly Cloudy
10:18 AM84.2 °F80.6 °F89 %29.85 in10.0 miEast (80°)9.2 mphMostly Cloudy
10:26 AM84.2 °F78.8 °F84 %29.85 in10.0 miENE (60°)12.7 mphMostly Cloudy
10:29 AM84.2 °F78.8 °F84 %29.85 in10.0 miNE (50°)11.5 mphRainLight Rain
10:30 AM84.2 °F78.8 °F84 %29.85 in10.0 miNE (50°)10.4 mphRainLight Rain
10:39 AM84.2 °F78.8 °F84 %29.85 in10.0 miENE (60°)8.1 mphMostly Cloudy
10:55 AM84.2 °F80.4 °F88 %29.85 in10.0 miEast (80°)9.2 mph0.00 inScattered Clouds
11:55 AM84.7 °F79.9 °F85 %29.84 in10.0 miEast (80°)9.2 mphScattered Clouds
12:55 PM84.6 °F79.5 °F85 %29.82 in10.0 miENE (60°)9.2 mphScattered Clouds
1:13 PM84.2 °F80.6 °F89 %29.81 in10.0 miNE (40°)9.2 mphMostly Cloudy
1:34 PM86.0 °F82.4 °F89 %29.81 in10.0 miNE (50°)8.1 mphMostly Cloudy
1:55 PM84.7 °F79.5 °F84 %29.80 in10.0 miENE (70°)11.5 mphPartly Cloudy
2:55 PM84.9 °F81.1 °F88 %29.79 in10.0 miENE (60°)10.4 mphPartly Cloudy
3:55 PM84.7 °F80.8 °F88 %29.79 in10.0 miENE (60°)8.1 mphPartly Cloudy
4:55 PM83.1 °F81.0 °F93 %29.79 in10.0 miENE (60°)6.9 mphPartly Cloudy
5:55 PM83.5 °F81.9 °F95 %29.79 in10.0 miEast (80°)9.2 mphScattered Clouds
6:54 PM82.4 °F77.0 °F84 %29.82 in3.0 miNNE (20°)9.2 mphRainHeavy Rain
6:55 PM81.7 °F81.0 °F98 %29.82 in2.0 miNorth (350°)9.2 mph0.08 inRainHeavy Rain
6:57 PM80.6 °F77.0 °F89 %29.82 in1.8 miNorth (350°)9.2 mphRainHeavy Rain
7:03 PM78.8 °F77.0 °F94 %29.82 in2.0 miVariable4.6 mphRainLight Rain
7:04 PM78.8 °F77.0 °F94 %29.82 in3.0 miVariable3.5 mphRainLight Rain
7:08 PM78.8 °F77.0 °F94 %29.82 in10.0 miNNE (30°)5.8 mphPartly Cloudy
7:21 PM78.8 °F77.0 °F94 %29.83 in9.0 miENE (70°)16.1 mph20.7 mphRainLight Rain
7:27 PM77.0 °F75.2 °F94 %29.84 in3.0 miENE (60°)13.8 mphRainHeavy Rain
7:29 PM77.0 °F73.4 °F89 %29.84 in2.5 miENE (60°)10.4 mph20.7 mphRainHeavy Rain
7:35 PM77.0 °F73.4 °F89 %29.83 in3.0 miNE (40°)3.5 mphRainRain
7:44 PM78.8 °F73.4 °F83 %29.83 in10.0 miNE (40°)4.6 mphMostly Cloudy
7:52 PM78.8 °F75.2 °F89 %29.84 in10.0 miENE (60°)5.8 mphScattered Clouds
7:55 PM78.6 °F77.5 °F96 %29.84 in10.0 miENE (60°)4.6 mph0.12 inScattered Clouds
8:21 PM80.6 °F78.8 °F94 %29.84 in7.0 miENE (60°)9.2 mphRainLight Rain
8:30 PM80.6 °F78.8 °F94 %29.84 in2.0 miCalmRainLight Rain
8:31 PM80.6 °F78.8 °F94 %29.84 in2.0 miCalmRainHeavy Rain
8:39 PM80.6 °F77.0 °F89 %29.84 in3.0 miCalmRainLight Rain
8:41 PM80.6 °F77.0 °F89 %29.84 in7.0 miCalmRainLight Rain
8:42 PM80.6 °F77.0 °F89 %29.84 in9.0 miENE (60°)4.6 mphLight Drizzle
8:44 PM80.6 °F77.0 °F89 %29.85 in10.0 miENE (60°)5.8 mphMostly Cloudy
8:55 PM80.2 °F76.1 °F87 %29.84 in10.0 miENE (70°)9.2 mph0.14 inMostly Cloudy
8:56 PM80.6 °F75.2 °F84 %29.84 in10.0 miENE (60°)8.1 mphMostly Cloudy
9:05 PM80.6 °F75.2 °F84 %29.85 in10.0 miENE (60°)9.2 mphMostly Cloudy
9:07 PM80.6 °F75.2 °F84 %29.84 in10.0 miENE (60°)9.2 mphMostly Cloudy
9:10 PM80.6 °F73.4 °F79 %29.84 in10.0 miNE (50°)9.2 mphMostly Cloudy
9:12 PM80.6 °F73.4 °F79 %29.84 in10.0 miNE (50°)9.2 mphMostly Cloudy
9:16 PM80.6 °F73.4 °F79 %29.84 in10.0 miNE (50°)10.4 mphMostly Cloudy
9:21 PM80.6 °F73.4 °F79 %29.84 in10.0 miENE (60°)9.2 mphMostly Cloudy
9:55 PM79.9 °F73.9 °F82 %29.84 in10.0 miNE (40°)6.9 mphClear
10:55 PM80.1 °F74.8 °F84 %29.85 in10.0 miENE (60°)9.2 mphPartly Cloudy
11:04 PM80.6 °F75.2 °F84 %29.85 in10.0 miENE (60°)8.1 mphMostly Cloudy
11:08 PM80.6 °F75.2 °F84 %29.84 in10.0 miENE (60°)8.1 mphMostly Cloudy
11:11 PM80.6 °F75.2 °F84 %29.84 in10.0 miENE (70°)9.2 mphRainLight Rain
11:26 PM80.6 °F75.2 °F84 %29.84 in10.0 miENE (60°)8.1 mphMostly Cloudy
11:31 PM80.6 °F75.2 °F84 %29.84 in10.0 miENE (60°)9.2 mphMostly Cloudy
11:34 PM80.6 °F75.2 °F84 %29.84 in10.0 miENE (60°)10.4 mphMostly Cloudy
11:39 PM80.6 °F75.2 °F84 %29.84 in10.0 miENE (60°)10.4 mphMostly Cloudy
11:41 PM80.6 °F75.2 °F84 %29.84 in10.0 miENE (60°)10.4 mphMostly Cloudy
11:48 PM80.6 °F75.2 °F84 %29.83 in10.0 miENE (60°)10.4 mphMostly Cloudy
11:55 PM79.9 °F74.8 °F85 %29.83 in10.0 miENE (60°)9.2 mph0.01 inScattered Clouds
11:56 PM80.6 °F75.2 °F84 %29.83 in10.0 miENE (60°)8.1 mphMostly Cloudy
Hourly data recorded from PGUA, located 3.55 miles away from Mangilao, Guam







STORIES FROM OUR PARTNERS